GFSGL_prec_cloud_003.txt.gz
Cloud_Cover
100 100 100 100 100 100 10 63 100 80 91 100 100 100 93 48 55 83 100 99 53 81 100 100 100 90 100 100 100 100 100 100 100 100 100 97 41 13 12 3 5 3 2
100 100 99 100 100 100 13 5 48 84 100 100 100 100 100 100 100 100 100 100 100 100 100 100 98 100 100 32 99 100 100 100 100 100 100 100 64 85 31 57 8 5 6
100 100 100 100 100 100 80 99 100 100 100 100 100 100 94 99 98 96 96 100 100 100 100 100 100 81 89 74 100 91 98 100 100 100 100 100 100 99 69 97 88 93 100
100 100 100 100 100 100 100 100 100 100 100 100 100 100 100 100 63 99 100 100 100 100 100 100 100 100 100 100 100 100 100 94 100 100 100 100 54 80 79 64 95 67 92
100 100 100 100 100 100 100 100 100 100 100 100 100 100 100 100 94 100 100 100 100 100 100 100 100 100 100 100 100 100 100 100 100 100 100 84 78 67 18 7 37 14 16
58 100 100 100 100 100 100 100 100 100 100 100 100 100 100 100 100 100 100 100 100 100 100 100 100 100 100 100 100 100 100 100 100 100 99 78 95 100 100 85 44 78 48
15 5 14 5 37 95 100 100 100 100 100 100 100 100 100 100 100 100 100 100 100 100 100 100 100 100 100 100 100 100 100 87 90 66 75 80 85 88 89 100 100 87 25
88 18 97 100 14 9 92 100 100 100 100 100 100 100 100 100 100 100 100 100 100 100 100 100 100 100 100 100 100 100 100 100 100 100 89 43 56 47 99 99 83 42 4
3 2 27 83 13 28 64 32 100 100 100 100 100 100 100 100 100 100 100 100 100 100 100 100 100 100 100 100 100 100 100 100 100 100 100 57 89 100 100 100 26 15 91
0 0 0 15 64 5 98 30 100 100 100 62 5 74 100 100 100 100 100 100 100 100 100 100 100 100 100 100 100 100 100 100 100 100 100 100 100 100 100 48 90 100 10
0 0 0 0 8 39 44 43 60 32 55 75 58 78 100 100 100 100 99 99 100 100 100 100 100 100 100 100 100 100 100 100 100 100 100 100 100 100 91 100 39 78 18
0 0 0 0 1 70 75 14 47 63 84 58 36 72 100 99 81 8 7 99 100 100 100 100 100 100 100 100 100 100 100 100 100 100 100 100 100 100 99 7 7 100 91
5 0 0 0 0 0 15 94 74 54 90 100 100 100 98 100 84 97 99 100 100 100 100 100 100 100 100 100 100 100 100 100 99 100 100 100 100 100 99 39 15 57 79
5 5 5 8 5 5 5 5 5 46 100 100 100 100 100 98 94 100 98 100 100 100 100 100 100 100 100 100 100 100 100 100 100 100 100 100 100 100 100 96 65 37 94
97 100 100 72 33 49 30 13 39 61 100 100 100 100 100 100 100 100 100 100 100 100 100 100 100 100 100 100 100 100 100 100 100 100 100 100 100 100 100 100 94 100 92
100 100 100 100 100 100 100 92 28 76 96 100 100 100 100 100 100 100 100 100 100 100 100 100 100 100 100 100 100 100 100 100 100 100 100 100 100 100 100 100 100 100 100
100 100 100 100 100 100 100 100 100 36 100 100 100 100 100 100 100 100 100 100 100 100 100 100 100 100 100 100 100 100 100 100 100 100 100 100 100 100 100 100 100 100 100
100 100 100 100 100 100 100 100 100 100 100 100 24 75 100 100 100 100 100 100 100 100 100 100 100 100 100 100 100 100 100 100 100 100 100 100 100 100 100 100 100 100 100
100 100 100 100 100 100 100 100 100 100 100 100 98 68 77 100 100 100 100 100 100 100 100 100 100 100 100 100 100 100 100 100 100 100 100 100 100 100 100 100 100 100 100
100 100 100 100 100 100 100 100 100 100 100 100 100 100 96 100 100 100 100 100 100 100 100 100 100 100 100 100 100 100 100 100 100 100 100 100 100 100 100 100 100 100 100
100 100 100 100 100 100 100 100 100 100 100 100 100 100 100 100 100 100 100 100 100 100 100 100 100 100 100 100 100 100 100 100 100 100 100 100 100 100 100 100 100 100 100
100 100 100 100 100 100 100 100 100 100 100 100 100 100 100 100 100 100 100 100 100 100 100 100 100 100 100 100 100 100 100 100 100 100 100 100 100 100 99 100 100 100 100
100 100 100 100 100 100 100 100 100 100 100 100 100 100 100 100 100 100 100 100 100 100 100 100 100 100 100 100 100 100 100 100 100 100 100 100 100 100 100 100 100 100 100
100 100 100 100 100 100 100 100 100 100 100 100 100 100 100 100 100 100 100 100 100 100 100 100 100 100 100 100 100 100 100 100 100 100 100 100 100 100 100 100 100 100 100
100 100 100 100 100 100 100 100 100 100 100 100 100 100 100 100 100 100 100 100 100 100 100 100 100 100 100 100 100 100 100 100 100 100 100 100 100 100 100 100 100 100 100
100 100 100 100 100 100 100 100 100 100 100 100 100 100 100 100 100 100 100 100 100 100 100 100 100 100 100 100 100 100 100 100 100 100 100 100 100 100 100 100 86 100 98

GFSGL_prec_cloud_006.txt.gz
Cloud_Cover
100 86 96 100 81 18 98 100 94 100 100 100 100 100 93 100 76 100 62 5 60 100 100 100 100 100 100 100 100 100 100 100 98 100 100 100 100 100 100 97 68 22 57
100 100 100 100 100 92 100 100 100 100 100 100 100 100 100 100 100 100 100 100 100 100 100 100 100 100 100 100 100 100 100 100 89 100 83 92 100 100 100 100 100 88 100
100 100 100 100 100 100 100 100 100 100 100 100 100 100 100 100 100 100 100 100 100 100 100 100 100 100 100 100 100 100 100 100 100 62 32 100 100 100 100 100 100 100 100
60 52 98 100 100 100 100 100 100 100 100 100 100 100 100 98 97 99 100 100 100 100 100 100 100 100 100 100 100 100 100 100 100 97 86 100 100 100 100 100 100 100 100
69 52 44 100 95 100 100 100 100 100 100 100 100 100 100 100 100 100 100 100 100 100 100 100 100 100 100 100 100 100 100 100 100 100 100 100 100 100 100 99 100 100 100
0 0 4 14 5 5 58 100 66 100 100 100 100 100 100 100 100 100 100 100 100 100 100 100 100 100 100 100 100 100 100 100 100 100 100 100 100 100 100 100 100 100 100
0 0 0 0 0 0 2 7 100 31 77 100 100 100 100 100 100 100 100 100 100 100 100 97 100 96 100 100 100 100 100 100 100 100 100 100 100 100 100 100 100 100 100
0 0 0 0 0 0 0 0 3 98 70 76 100 100 100 100 100 100 100 88 100 100 100 100 100 100 100 100 100 100 100 100 100 100 100 100 100 100 100 100 100 100 100
0 0 0 0 0 0 0 0 0 72 100 87 7 100 100 100 100 100 100 100 100 100 100 100 100 100 100 100 100 100 100 100 100 100 100 100 100 100 100 100 100 100 100
0 0 0 0 0 0 0 0 0 0 6 99 8 23 100 100 100 100 100 98 10 94 100 100 100 100 100 100 100 100 100 100 100 100 100 100 100 100 100 100 100 100 93
0 0 0 0 2 0 0 0 0 0 0 0 1 23 11 3 36 91 100 96 50 100 100 97 99 100 100 100 100 100 100 100 100 100 100 100 100 100 100 100 100 100 100
5 5 5 5 5 9 8 5 5 5 5 4 0 5 4 31 5 78 100 100 100 100 100 100 98 100 100 100 100 100 100 100 100 100 100 100 100 100 100 100 100 100 100
5 5 5 48 95 100 100 99 99 79 64 5 5 5 3 0 3 5 89 100 100 100 100 100 100 100 100 100 100 100 100 100 100 100 100 100 100 100 100 100 100 100 100
12 54 98 100 100 100 100 100 100 100 100 100 99 75 46 12 5 36 23 100 100 100 100 100 100 100 100 100 100 100 100 100 100 100 100 100 100 100 100 100 100 100 100
100 100 100 100 100 100 100 100 100 100 100 100 100 100 100 100 77 79 84 92 100 100 100 100 100 100 100 100 100 100 100 100 100 100 100 100 100 100 100 100 100 100 100
100 100 100 100 100 100 100 100 100 100 100 100 100 100 93 97 100 100 100 100 100 100 100 100 100 100 100 100 100 100 100 100 100 100 100 100 100 100 100 100 100 100 100
100 100 100 100 100 100 100 100 100 98 100 100 100 100 100 100 100 100 100 100 100 100 100 100 100 100 100 100 100 100 100 100 100 100 100 100 100 100 100 100 100 100 100
100 100 100 100 100 100 100 100 100 100 100 100 88 100 100 100 100 100 100 100 100 100 100 100 100 100 100 100 100 100 100 100 100 100 100 100 100 100 100 100 100 100 100
100 100 100 100 100 100 100 100 100 100 100 100 100 79 100 100 100 100 100 100 100 100 100 100 100 100 100 100 100 100 100 100 100 100 100 100 100 100 100 100 100 100 100
100 100 100 100 100 100 100 100 100 100 100 100 100 100 100 100 100 100 100 92 100 100 100 100 100 100 100 100 100 100 100 100 100 100 100 100 100 100 100 100 100 100 100
100 100 100 100 100 100 100 100 100 100 100 100 100 100 100 100 100 100 100 100 100 100 100 100 100 100 100 100 100 100 100 100 100 100 100 100 100 100 100 100 100 100 100
100 100 100 100 100 100 100 100 100 100 100 100 100 100 100 100 100 100 100 100 100 100 100 100 100 100 100 100 100 100 100 100 100 100 100 100 100 100 100 100 100 100 100
100 100 100 100 100 100 100 100 100 100 100 100 100 100 100 100 100 100 100 100 100 100 100 100 100 100 100 100 100 100 100 100 100 100 100 100 100 100 100 100 100 100 100
100 100 100 100 100 100 100 100 100 100 100 100 100 100 100 100 100 100 100 100 100 100 100 100 100 100 100 100 100 100 100 100 100 100 100 100 100 100 100 100 100 100 100
100 100 100 100 100 100 100 100 100 100 100 100 100 100 100 100 100 100 100 100 100 100 100 100 100 100 100 100 100 100 100 100 100 100 100 100 100 100 100 100 100 100 100
100 100 100 100 100 100 100 100 100 100 100 100 100 100 100 100 100 100 100 100 100 100 100 100 100 100 100 100 100 100 100 100 100 100 100 100 100 100 100 100 100 100 100

GFSGL_prec_cloud_009.txt.gz
Cloud_Cover
100 100 95 100 100 100 100 100 100 100 100 100 100 100 100 99 100 100 100 100 100 100 98 66 100 100 100 99 84 99 100 100 75 5 11 54 96 92 100 76 12 70 60
100 100 100 100 100 100 100 100 100 100 100 100 100 100 100 100 86 100 100 100 100 100 100 100 100 100 100 100 78 74 65 90 29 74 49 21 95 90 69 50 79 84 93
100 100 100 95 100 99 100 100 100 100 100 100 100 100 98 82 100 100 100 99 63 100 100 100 100 100 100 100 100 99 100 82 71 68 77 5 49 100 100 93 100 100 100
90 16 55 78 49 99 100 94 100 100 100 100 100 100 100 100 100 100 92 98 100 93 100 100 100 100 100 100 100 100 100 100 89 5 65 90 51 5 75 100 100 92 100
0 0 0 0 1 3 27 100 100 100 100 100 100 100 100 100 100 100 100 100 100 100 100 100 100 100 100 100 100 100 100 100 100 90 100 80 75 100 92 98 62 65 100
0 0 0 0 0 0 0 0 0 86 100 100 100 100 100 100 100 100 100 100 100 100 100 100 100 100 100 100 100 100 100 100 100 98 100 83 70 100 100 100 96 100 95
0 0 0 0 0 0 0 0 0 0 0 0 0 5 62 80 100 100 100 100 100 100 100 100 100 100 100 100 100 100 100 100 100 100 96 100 100 100 100 100 100 100 100
0 0 0 0 0 0 0 0 0 0 0 0 0 0 0 0 0 32 100 100 100 100 100 100 100 100 100 100 100 100 100 100 100 100 100 100 100 100 100 100 100 100 100
0 0 0 0 0 0 0 0 0 0 0 0 0 0 0 0 0 0 0 5 23 89 100 100 94 94 100 100 100 100 100 100 100 100 100 100 100 100 100 100 100 100 100
0 0 0 0 0 5 5 5 5 5 5 3 0 0 0 0 0 0 0 2 5 18 62 100 100 100 100 100 100 100 99 100 100 100 100 100 100 100 100 100 100 100 100
0 2 5 5 6 5 5 74 97 96 81 18 6 5 3 0 0 0 0 5 5 2 43 75 100 100 100 100 100 100 100 100 100 100 100 100 100 100 100 100 100 100 100
3 5 5 5 5 52 92 82 100 100 100 100 99 74 5 5 1 0 5 5 5 5 5 100 100 100 100 100 100 93 100 100 99 100 100 100 100 100 100 100 100 100 100
5 5 10 46 79 99 100 100 100 100 100 100 100 100 64 12 5 5 5 26 34 78 38 36 92 100 100 100 100 100 100 100 100 100 100 100 100 100 100 100 100 100 100
79 98 100 100 100 100 100 100 100 100 100 100 100 100 100 100 100 100 100 99 52 36 71 99 100 100 100 100 100 100 100 100 100 100 100 100 100 100 100 100 100 100 100
100 100 100 100 100 100 100 100 100 100 100 100 100 100 100 100 100 100 100 100 100 82 100 99 100 100 100 100 100 100 100 100 100 100 100 100 100 100 100 100 100 100 100
100 100 100 100 100 100 100 100 100 100 100 100 100 100 100 100 100 100 100 100 100 100 100 100 100 100 100 99 100 100 100 100 100 100 100 100 100 100 100 100 100 100 100
100 100 100 100 100 100 100 100 100 79 100 100 100 100 100 100 100 100 100 100 100 100 100 99 100 100 100 100 100 100 100 100 100 100 100 100 100 100 100 100 100 100 100
100 100 100 100 100 100 100 100 100 100 100 89 100 100 100 100 100 100 100 100 100 100 100 100 100 100 98 100 100 100 100 100 100 100 100 100 100 100 100 100 100 100 100
100 100 100 100 100 100 100 100 100 100 100 100 100 100 100 100 100 100 100 100 100 93 98 100 100 100 100 100 100 100 100 100 100 100 100 100 100 100 100 100 100 100 100
100 100 100 100 100 100 100 100 100 100 100 100 100 100 100 100 100 100 100 100 47 84 100 99 100 100 100 100 100 100 100 100 100 100 100 100 100 100 100 100 100 100 100
100 100 100 100 100 100 100 100 100 100 100 100 100 100 100 100 92 100 100 100 94 100 100 100 100 100 100 100 100 100 100 100 100 100 100 100 100 100 100 100 100 100 100
100 100 100 100 100 100 100 100 100 100 100 100 100 100 100 100 100 100 100 100 100 100 100 100 100 100 100 100 100 100 100 100 100 100 100 100 100 100 100 100 100 100 100
100 100 100 100 100 100 100 100 100 100 100 100 100 100 100 100 100 100 100 100 100 100 100 100 100 100 100 100 100 100 100 100 100 100 100 100 100 100 100 100 100 100 100
100 100 100 100 100 100 100 100 100 100 100 100 100 100 100 100 100 100 100 100 100 100 100 100 100 100 100 100 100 100 100 100 100 100 100 100 100 100 100 100 100 100 100
97 100 100 100 100 100 100 100 100 100 100 100 100 100 100 100 100 100 100 100 100 100 100 100 100 100 100 100 100 100 100 100 100 100 100 100 100 100 100 100 100 100 100
5 5 45 99 100 100 100 100 100 100 100 100 100 100 100 100 100 100 100 100 100 100 100 100 100 100 100 100 100 100 100 100 100 100 100 100 100 100 100 100 100 100 100

GFSGL_prec_cloud_015.txt.gz
Cloud_Cover
5 3 3 1 7 94 21 34 5 3 5 5 40 97 10 14 11 55 14 36 70 94 66 27 18 20 20 92 98 100 96 59 6 8 38 100 100 100 80 4 0 0 0
52 3 1 2 1 3 40 71 98 22 5 5 3 0 39 20 50 74 100 49 15 64 98 100 100 100 99 69 66 98 96 100 79 7 26 89 100 100 99 56 72 52 5
0 0 2 0 0 1 0 0 3 4 5 5 5 3 5 1 5 1 0 31 78 9 98 100 100 100 100 100 100 100 91 72 38 5 5 5 100 100 100 100 98 49 100
5 3 4 3 0 2 2 4 5 4 4 0 0 0 2 8 25 2 2 3 2 1 8 91 100 100 100 100 100 100 100 100 100 100 77 5 5 34 100 100 91 100 100
29 49 58 5 5 5 5 0 1 4 0 0 0 0 0 1 1 0 0 1 3 3 0 3 24 99 100 100 100 100 100 100 100 100 100 98 30 28 97 100 100 100 100
5 5 2 0 0 0 0 0 0 0 0 0 0 0 0 0 0 0 0 0 0 0 0 0 1 67 55 100 100 100 100 100 100 100 100 100 100 100 100 100 100 100 100
5 5 2 4 4 0 1 0 0 0 0 0 0 2 1 0 2 5 24 44 5 5 4 2 2 4 5 90 100 100 100 100 100 100 100 100 100 100 100 100 100 100 100
5 5 5 3 5 4 0 0 0 0 4 5 5 5 5 5 6 92 100 100 79 61 59 8 5 5 5 5 5 77 100 100 100 100 100 100 100 100 100 100 100 100 100
0 3 5 5 5 0 0 4 5 5 5 5 5 5 5 5 16 97 100 100 89 83 90 47 60 6 5 34 63 59 32 90 100 100 100 100 100 100 100 100 100 100 100
1 0 0 0 5 5 5 5 5 5 5 5 15 32 6 7 13 100 100 100 100 100 80 86 57 98 88 95 100 95 87 5 13 100 100 100 100 100 100 100 100 100 100
4 2 4 5 5 5 5 5 5 24 96 100 100 100 100 94 72 100 100 100 100 99 100 100 99 100 100 100 100 100 90 27 12 13 97 100 100 100 100 100 100 100 100
5 5 5 5 5 5 5 5 61 82 98 100 100 100 100 98 67 100 100 100 100 100 100 100 100 100 100 100 100 100 100 97 100 99 90 100 100 100 100 100 100 100 100
5 5 5 5 5 5 5 5 5 30 100 100 100 100 100 82 94 99 100 100 100 100 36 32 98 100 100 100 100 100 100 100 100 100 100 100 96 100 100 100 100 100 100
5 5 5 5 5 5 6 42 76 100 100 100 100 100 100 100 100 100 100 100 64 57 7 6 32 93 100 100 96 98 100 100 100 100 100 78 100 100 100 99 100 100 100
5 5 5 16 35 77 87 99 100 100 100 100 100 100 100 100 100 100 100 100 100 100 100 100 100 100 100 100 100 100 52 50 100 95 100 100 100 100 100 100 100 100 100
67 8 48 98 100 99 78 98 75 100 100 100 100 100 100 100 100 100 100 100 100 100 100 95 96 100 100 100 100 100 100 77 81 87 100 99 100 98 100 100 100 100 100
68 56 82 96 100 100 100 100 100 34 65 100 100 100 100 100 100 100 100 100 100 100 100 100 100 57 37 100 100 100 99 96 95 100 100 100 100 100 100 100 100 100 100
14 5 87 100 100 100 100 100 100 100 100 65 53 100 100 100 100 100 100 100 97 100 100 100 100 100 47 90 100 100 100 100 100 100 100 100 100 100 100 100 100 100 100
5 68 62 100 100 100 100 100 100 100 100 100 100 83 96 89 100 100 100 100 100 100 100 100 100 100 100 100 85 94 92 65 56 98 100 100 100 99 100 100 100 100 100
5 39 100 100 100 100 100 100 100 100 100 100 100 100 98 100 75 96 100 100 100 100 100 100 100 100 100 100 100 100 100 100 99 100 100 100 100 100 100 100 100 100 100
72 98 100 100 100 100 100 100 100 100 100 100 100 100 100 100 100 100 100 100 100 100 100 100 100 100 100 100 100 100 100 100 100 100 100 100 100 100 100 100 100 100 100
69 100 100 100 100 100 100 100 100 100 100 100 100 100 100 100 100 100 100 100 100 100 100 100 100 100 100 100 100 100 100 100 100 100 100 100 100 100 100 100 100 100 100
100 100 100 100 100 96 94 71 96 100 100 100 100 100 100 100 100 100 100 100 100 100 100 100 100 100 100 100 100 100 100 100 100 100 100 100 100 100 100 100 100 100 100
100 100 100 100 100 99 99 85 83 93 100 100 100 100 100 100 100 100 100 100 100 100 100 100 100 100 100 100 100 100 100 100 100 100 100 100 100 100 100 100 100 100 100
100 100 100 100 100 96 65 60 14 23 84 100 100 100 100 100 100 100 100 100 100 100 100 100 100 100 100 100 100 100 100 100 100 100 100 100 100 100 100 100 100 100 100
100 100 100 100 100 99 58 46 37 19 5 5 23 73 82 71 71 85 93 100 100 100 100 100 100 100 100 100 100 100 100 100 100 100 100 100 100 100 100 100 100 100 100

GFSGL_prec_cloud_021.txt.gz
Cloud_Cover
100 89 59 58 11 3 5 14 42 16 0 0 0 2 5 30 63 82 7 60 58 91 33 5 60 65 47 62 15 5 5 5 5 4 5 7 8 24 6 5 5 5 56
0 1 0 0 0 0 0 0 0 0 0 0 0 0 0 1 5 5 5 5 28 6 9 41 12 15 6 52 57 11 5 13 17 5 5 3 0 1 35 7 62 31 5
1 0 0 0 0 0 0 0 0 3 5 5 1 4 0 0 0 0 0 1 5 3 5 17 55 6 33 11 5 5 5 5 5 29 5 5 5 5 5 4 7 58 81
0 0 0 0 0 0 0 0 0 0 1 0 0 0 0 0 0 0 0 3 5 4 3 3 7 34 21 40 12 5 5 5 5 5 5 5 5 39 5 41 20 20 99
2 0 0 5 4 1 3 4 0 0 0 0 0 0 0 0 0 0 5 5 5 5 5 5 5 7 5 65 93 42 17 35 94 63 13 5 5 10 71 81 13 99 13
5 5 5 4 3 4 3 0 0 0 0 0 0 0 0 0 0 5 16 29 35 62 7 11 58 29 17 78 92 100 100 100 100 100 100 94 14 3 6 42 100 99 8
5 5 5 5 5 2 0 0 0 0 0 0 0 0 0 0 3 5 75 85 94 99 100 100 98 75 39 30 27 91 73 71 93 100 100 100 100 87 43 84 40 92 83
5 5 5 2 3 1 0 0 0 0 0 0 0 3 4 5 5 45 100 100 100 100 100 100 100 97 98 100 98 79 14 9 56 65 24 60 100 100 100 96 75 34 8
2 5 5 4 5 5 5 5 3 5 5 5 5 5 5 5 6 97 100 100 100 100 100 100 100 70 96 100 100 100 100 97 94 100 100 100 98 100 100 100 100 100 90
5 5 5 5 5 5 5 5 5 5 5 5 5 5 5 5 5 96 100 100 100 100 100 91 69 100 100 100 100 100 100 92 10 22 88 83 55 66 99 100 100 100 100
8 25 63 55 5 5 5 5 5 5 5 5 5 5 5 5 5 80 100 100 100 100 100 100 97 90 100 100 100 100 55 98 94 97 13 5 32 100 92 33 100 100 100
95 98 97 99 62 5 8 5 5 5 7 10 5 5 5 4 4 20 100 100 100 100 98 66 62 100 100 100 100 100 100 100 100 90 48 66 94 99 88 100 100 100 100
100 100 100 90 18 5 48 6 5 5 53 61 64 58 6 6 5 65 100 100 100 100 100 100 100 100 100 80 15 14 78 15 6 31 6 4 0 4 76 100 100 86 100
100 100 100 100 63 5 5 5 58 54 68 100 100 96 94 100 100 99 62 100 100 100 100 94 93 100 95 98 35 44 33 71 99 100 100 84 40 38 70 80 100 100 100
81 100 100 100 94 5 5 5 22 63 100 100 100 100 100 100 97 100 100 100 100 100 100 98 48 20 33 67 100 100 82 85 97 71 99 100 100 100 32 29 100 100 100
91 100 97 41 5 5 5 5 6 78 100 100 100 100 100 100 100 100 100 100 100 100 100 75 21 85 100 100 100 100 100 100 96 99 100 100 100 100 100 45 100 100 100
81 100 83 5 5 5 14 41 71 3 20 79 100 100 100 100 100 100 100 100 100 100 99 100 100 100 100 100 100 100 100 100 100 100 100 100 100 100 100 100 100 100 100
91 100 36 56 18 46 20 64 99 100 83 35 77 100 100 100 100 100 100 81 21 44 100 100 100 100 100 100 100 100 100 100 100 100 100 100 100 100 100 100 100 100 100
100 58 66 45 65 37 73 50 62 83 93 80 100 100 18 96 100 92 99 75 100 100 100 100 100 100 100 100 100 100 100 100 100 100 100 100 100 100 100 100 100 100 100
48 57 10 54 22 46 10 40 35 33 69 100 100 100 100 100 100 50 74 100 100 100 100 100 100 100 100 100 100 100 100 100 100 100 100 100 100 100 100 100 100 100 100
5 5 5 53 72 22 5 15 8 56 100 100 100 100 100 100 100 100 100 100 100 100 100 100 100 100 100 100 100 100 100 100 100 100 100 100 100 100 100 98 100 100 100
5 12 75 76 8 13 29 5 13 100 100 100 100 100 100 100 66 37 63 75 89 100 100 100 100 100 100 100 100 100 100 100 100 100 100 100 100 100 91 100 100 100 100
39 94 40 21 25 6 7 38 100 100 100 100 100 100 100 84 5 5 5 5 8 61 33 91 100 100 100 100 100 100 100 100 100 100 100 100 100 100 100 100 100 100 100
84 24 18 27 47 53 57 100 100 100 100 100 100 100 100 13 9 5 5 5 5 5 16 80 99 100 100 100 100 100 100 100 100 100 100 100 100 100 100 100 100 100 100
95 19 77 82 68 68 100 100 100 100 100 100 100 100 75 30 8 5 5 5 5 5 5 22 62 77 99 100 100 100 100 99 92 100 100 100 100 100 100 100 100 100 100
100 100 100 92 79 92 100 100 100 100 100 100 99 99 12 5 5 5 5 5 16 5 5 5 12 49 62 99 99 100 100 100 100 100 90 97 100 100 100 100 100 100 100

GFSGL_prec_cloud_024.txt.gz
Cloud_Cover
100 100 84 8 3 4 6 5 5 4 3 0 0 0 1 0 3 4 5 5 5 5 5 4 12 31 54 66 85 6 10 5 5 30 76 99 98 100 94 45 5 5 5
94 15 4 5 28 50 61 42 18 5 3 0 0 0 0 0 0 0 0 0 0 0 2 5 0 0 5 5 12 6 5 5 5 5 22 67 83 100 100 100 89 5 5
5 5 5 5 13 5 5 5 3 1 0 0 0 0 0 0 0 0 0 0 0 0 1 4 1 5 5 5 5 5 5 5 5 15 19 9 94 65 74 96 98 100 81
5 0 5 5 1 0 0 0 0 0 0 0 0 0 0 0 0 0 0 0 1 4 5 5 5 5 5 5 5 71 73 94 100 96 99 93 55 66 99 62 61 92 100
4 3 0 4 5 2 0 1 0 0 0 0 0 0 0 0 0 0 5 5 5 5 5 5 5 10 67 65 94 44 90 100 100 100 100 100 100 97 14 83 87 86 77
5 5 4 0 3 4 2 0 0 0 0 0 0 0 0 0 0 5 38 5 5 5 6 5 5 5 16 89 99 100 100 100 100 100 100 100 100 100 100 88 7 31 6
5 5 5 5 5 2 0 0 0 0 0 0 0 0 0 0 2 5 69 74 96 100 93 66 60 56 26 9 30 95 73 51 100 100 100 99 100 100 100 100 96 40 5
5 5 5 4 5 5 1 3 0 0 0 0 0 3 4 0 5 30 96 93 81 97 100 100 99 47 9 100 100 94 80 82 100 97 61 45 38 39 6 7 42 92 92
1 5 5 3 5 5 5 5 5 4 4 5 4 5 5 5 4 38 98 100 100 100 100 97 9 23 91 100 100 100 100 98 34 98 100 100 100 100 100 100 100 98 74
2 5 5 5 5 5 5 5 5 7 5 5 5 5 5 5 4 58 100 100 100 100 91 21 66 100 100 100 100 100 100 80 72 24 5 4 4 0 2 5 5 100 100
5 5 5 5 22 5 6 5 5 5 5 5 5 5 5 5 5 84 100 100 100 100 100 100 26 86 100 100 100 100 92 100 97 100 100 100 100 99 91 5 5 5 94
5 5 7 98 58 61 5 22 34 5 5 5 5 5 5 4 10 89 100 100 100 100 100 100 92 100 100 100 100 100 100 100 98 46 15 15 14 14 6 2 5 4 65
5 16 100 97 97 73 9 66 100 100 41 5 5 5 5 5 5 95 75 100 100 100 100 100 100 100 100 95 77 99 100 85 100 100 100 100 100 96 79 51 6 5 4
5 72 100 89 100 90 63 100 100 97 5 11 75 86 12 79 96 6 44 100 100 56 72 100 100 75 5 8 5 21 47 97 99 100 100 100 100 100 100 100 100 100 96
5 89 96 98 100 100 100 100 96 81 56 100 89 100 100 100 54 100 100 100 100 100 100 42 5 6 33 42 47 78 75 98 100 100 100 100 100 100 100 100 100 100 100
5 55 92 34 98 88 99 100 69 93 100 100 100 100 100 100 100 100 100 100 100 100 96 41 61 97 100 100 100 100 100 100 100 100 100 100 100 100 100 100 100 100 100
49 73 73 90 97 98 90 45 69 97 100 100 100 100 100 100 100 100 100 100 98 83 37 70 100 100 100 100 100 100 100 100 100 100 100 100 100 100 100 100 100 100 98
42 100 100 100 100 100 97 99 93 83 68 28 6 98 100 100 100 100 100 82 13 30 77 100 100 100 100 100 100 100 100 100 100 100 100 100 100 100 100 100 100 100 100
63 91 91 99 100 100 75 64 50 34 31 16 5 5 5 68 100 90 95 36 95 100 98 100 100 100 100 100 100 100 100 100 100 100 100 100 100 100 100 100 100 100 100
100 100 95 96 100 50 30 32 10 12 5 15 5 5 65 100 100 78 8 5 50 100 100 100 100 100 100 100 100 100 100 100 100 100 100 100 100 100 100 100 100 100 100
100 100 94 45 90 36 9 13 5 21 21 5 5 50 100 100 100 100 100 100 26 58 99 100 100 100 100 100 100 100 100 100 100 100 100 100 100 100 100 100 100 100 100
7 45 100 100 100 100 64 35 5 25 5 5 62 100 100 100 100 100 100 82 5 5 42 85 100 100 100 100 100 100 100 100 100 100 100 100 100 100 100 99 92 100 100
57 75 88 100 100 100 72 6 26 47 20 22 100 100 100 100 100 100 81 5 5 5 5 5 13 69 71 95 100 100 100 100 100 100 100 100 100 100 100 98 90 94 99
82 67 99 100 100 100 62 94 98 87 72 100 100 100 100 100 100 69 5 5 5 5 5 5 5 5 6 5 71 94 100 100 100 100 100 100 100 100 97 100 100 100 100
82 100 97 96 95 97 100 100 100 98 96 100 100 100 100 100 100 45 6 5 5 5 5 5 5 5 5 5 27 48 89 100 100 100 100 100 95 92 97 100 100 100 100
100 100 100 100 100 100 100 100 100 99 100 100 100 100 100 100 81 47 14 5 5 5 5 5 5 5 5 5 6 59 96 100 100 96 83 97 90 84 89 97 100 100 100

GFSGL_prec_cloud_027.txt.gz
Cloud_Cover
5 41 100 100 5 75 100 100 96 40 7 8 19 15 6 5 5 5 5 0 0 0 2 44 75 11 31 72 11 5 5 5 5 5 10 100 100 100 100 100 100 94 46
6 6 99 38 16 6 82 15 5 5 0 4 0 4 5 2 0 0 0 0 0 0 0 0 0 0 3 5 5 5 5 5 32 9 5 6 35 100 100 100 100 59 82
88 96 21 28 5 33 1 0 0 0 0 2 0 0 0 0 0 0 0 0 0 0 5 5 3 5 5 5 5 5 5 10 57 100 100 100 33 5 42 93 100 100 52
100 80 84 100 39 0 0 0 0 0 0 0 0 0 0 0 0 0 0 3 5 5 5 5 5 5 5 5 5 50 52 27 38 89 100 100 100 72 5 5 27 44 100
19 60 100 10 0 0 0 0 0 0 0 0 0 0 0 0 0 3 5 5 5 5 5 5 5 5 43 72 95 94 100 100 100 100 100 100 98 100 95 44 49 35 5
20 97 58 0 3 4 0 0 0 0 0 0 0 0 0 0 0 5 25 5 5 5 5 5 5 5 5 21 83 100 100 100 100 100 100 100 86 100 99 76 8 94 47
45 17 4 5 5 5 4 1 0 0 0 0 0 0 0 0 2 5 28 9 5 5 5 5 5 5 5 5 70 100 100 59 100 100 100 99 100 98 100 91 72 4 2
55 5 5 5 5 0 0 0 0 0 2 0 0 0 0 0 3 5 77 47 16 42 29 64 5 5 7 100 100 82 53 93 100 100 80 67 100 52 66 85 84 100 73
0 4 5 4 5 0 2 0 0 5 5 4 4 5 5 4 5 5 77 95 98 99 98 44 5 16 94 100 100 100 100 84 7 13 61 100 100 100 100 100 100 100 84
2 1 5 5 5 5 0 4 5 5 5 5 5 5 5 5 0 38 96 100 100 100 62 96 91 100 100 100 100 100 100 60 5 24 36 74 46 6 56 54 58 100 100
5 5 5 5 5 5 5 37 82 80 5 5 5 5 5 5 4 35 100 100 91 100 100 100 94 93 100 100 100 100 100 100 100 100 100 100 100 100 100 94 68 86 100
5 5 5 5 4 5 24 70 64 45 5 5 5 5 5 5 4 33 100 100 100 100 100 98 93 98 100 100 100 100 100 100 90 57 80 100 100 100 100 100 100 100 100
5 5 5 5 5 5 70 33 7 49 56 5 5 5 5 5 5 17 33 80 100 100 100 100 100 100 100 76 11 99 100 22 74 100 100 100 100 100 99 100 91 78 74
5 5 5 5 5 7 14 21 76 37 24 5 39 68 5 5 18 6 9 71 100 64 100 90 37 32 8 48 5 5 21 83 100 100 100 100 100 100 100 100 95 84 100
5 5 5 5 5 5 75 100 81 66 37 55 89 39 76 86 81 99 100 100 100 100 100 5 5 5 5 5 20 58 67 96 100 100 100 100 100 100 100 100 100 100 100
5 5 5 5 5 5 8 23 77 78 99 100 100 100 100 100 100 100 100 100 100 100 81 5 6 61 96 96 100 99 98 100 100 100 100 100 100 100 100 100 100 100 100
5 5 5 5 5 5 5 5 6 93 100 82 94 100 100 100 100 100 100 100 99 92 7 25 89 89 97 100 100 100 100 100 100 100 100 100 100 100 100 100 100 100 100
5 5 5 5 5 5 5 5 5 8 100 100 74 84 100 100 100 100 100 97 98 11 60 79 96 96 100 100 100 100 100 100 100 100 100 100 100 100 100 100 100 100 100
5 5 5 5 8 5 5 5 14 31 63 5 6 7 8 43 100 100 92 98 100 90 26 81 81 100 100 100 100 100 100 100 100 100 100 100 100 100 100 100 100 100 100
5 26 5 5 10 66 52 79 21 52 98 94 50 6 5 7 77 74 86 86 100 100 98 68 33 96 100 100 100 100 100 100 100 100 100 100 100 100 100 100 100 100 100
72 6 13 65 99 100 100 100 30 5 74 76 78 15 97 100 100 83 93 92 81 68 68 5 5 32 54 100 100 100 100 100 100 100 100 100 100 100 100 100 100 100 100
89 7 76 100 100 90 46 92 98 100 70 20 71 16 80 61 53 100 100 100 100 100 31 5 22 5 5 72 98 100 100 100 100 100 100 100 100 100 100 100 100 100 100
9 11 27 5 35 94 99 100 100 100 100 96 78 30 79 70 100 100 100 100 100 72 5 5 5 5 5 5 45 100 100 100 100 100 100 100 100 100 100 100 100 100 100
83 62 23 5 34 49 49 100 100 100 100 100 99 92 69 64 100 100 100 100 100 74 5 5 5 5 5 45 31 30 88 74 100 100 100 100 100 100 100 100 100 100 100
8 89 92 73 72 87 86 87 100 100 100 100 100 94 72 100 100 100 100 100 100 20 5 5 5 5 14 5 13 39 93 72 100 100 99 88 100 100 100 100 100 96 87
86 58 33 72 72 100 100 100 100 100 100 100 100 94 97 100 100 100 100 100 99 14 5 5 5 5 5 5 5 69 100 100 100 99 32 62 91 98 99 89 61 92 91

GFSGL_prec_cloud_030.txt.gz
Cloud_Cover
13 6 18 6 25 5 5 5 5 4 5 5 5 1 0 0 0 0 0 0 0 0 0 0 0 0 0 0 0 0 0 4 5 0 4 85 100 100 100 100 100 24 5
100 45 22 100 12 5 5 5 24 5 3 0 0 0 0 0 0 0 0 0 0 0 0 0 0 0 0 0 0 0 0 1 5 5 1 5 5 84 73 100 100 100 54
73 5 5 5 5 5 36 46 32 38 4 0 0 0 0 0 0 0 0 0 0 0 0 0 0 0 0 0 0 0 1 5 5 14 5 7 5 31 34 31 99 100 100
3 5 33 5 5 62 94 92 8 0 0 0 0 0 0 0 0 0 0 0 0 0 0 0 0 0 0 0 4 5 5 51 100 100 70 22 37 22 51 52 10 54 79
5 5 10 5 8 100 88 12 0 0 0 0 0 0 0 0 0 0 0 0 5 0 0 0 0 0 5 6 30 5 91 100 100 100 100 95 94 95 98 84 54 5 4
5 13 12 5 68 97 50 0 0 0 0 0 0 0 0 0 0 5 5 5 5 3 0 0 0 0 0 5 58 95 100 100 100 100 100 100 100 100 100 100 100 65 5
15 1 5 48 86 99 2 0 0 0 0 0 0 0 0 0 0 5 5 5 5 5 2 0 0 0 5 5 27 100 100 100 100 100 100 100 99 100 96 100 99 100 93
91 9 97 27 83 5 3 0 0 0 0 5 0 2 5 1 0 5 18 5 5 5 5 5 5 5 5 90 100 90 100 100 100 98 90 34 96 84 49 38 100 100 91
97 17 24 99 5 0 0 0 0 0 0 0 4 5 5 5 1 5 31 5 5 67 19 5 34 76 99 100 100 95 62 11 5 40 99 100 100 100 100 100 100 100 100
8 80 83 5 5 5 0 0 0 0 0 3 8 61 22 5 5 5 84 89 99 97 98 98 100 100 100 100 100 100 100 100 100 100 100 99 97 77 96 100 99 100 100
89 12 4 5 5 0 0 0 5 3 4 5 5 5 5 5 5 14 100 100 100 100 100 100 100 100 100 100 100 100 93 100 95 77 83 66 6 5 63 94 100 100 100
8 5 5 5 0 3 5 5 5 5 5 5 5 5 5 5 5 6 91 100 100 100 100 100 100 100 100 100 76 97 100 100 98 100 100 95 92 92 91 99 99 100 100
5 5 5 5 5 5 5 4 1 5 5 5 5 5 5 5 5 5 6 47 100 100 100 100 99 63 45 5 7 98 100 100 100 100 100 100 100 100 100 99 100 89 79
5 5 5 5 5 5 4 2 1 2 5 5 5 5 5 7 41 100 86 98 100 100 100 85 42 19 5 50 11 17 94 100 100 100 100 100 100 100 100 100 100 100 100
5 5 5 5 5 4 1 0 2 5 5 5 5 19 98 95 95 100 100 100 100 100 100 76 5 5 28 54 78 100 100 100 100 100 100 100 100 100 100 100 100 100 100
5 5 5 4 0 0 0 4 5 5 92 100 100 100 100 100 100 100 100 100 100 100 100 78 43 88 100 100 100 100 100 100 100 100 100 100 100 100 100 100 100 100 100
5 5 5 5 3 3 5 5 5 5 8 84 96 100 100 100 100 100 100 100 100 83 5 10 98 100 100 100 100 100 100 100 100 100 100 100 100 100 100 100 100 100 100
5 5 5 5 5 5 5 5 5 5 5 16 71 45 68 100 100 100 100 100 74 5 53 96 100 100 100 100 100 100 100 100 100 100 100 100 100 100 100 100 100 100 100
36 59 58 40 8 5 5 5 16 6 5 85 100 100 64 57 100 100 100 76 15 20 75 100 99 100 100 100 100 100 100 100 100 100 100 100 100 100 100 100 100 100 100
100 100 100 100 100 98 100 99 16 5 5 50 99 100 44 55 56 94 91 34 5 11 100 100 100 100 100 100 100 100 100 100 100 100 100 100 100 100 100 100 100 100 100
100 100 100 100 98 100 99 23 5 5 5 51 97 100 100 100 100 100 100 20 5 90 100 100 100 100 83 96 100 100 100 100 100 100 100 100 100 100 100 100 100 100 100
100 100 100 100 100 99 81 5 5 5 40 99 100 100 100 100 100 100 24 5 5 69 100 100 73 80 87 100 100 100 100 100 100 100 100 100 100 100 100 100 100 100 100
100 100 100 53 34 23 6 5 34 83 37 39 100 100 100 100 100 100 46 50 8 78 100 100 61 46 54 100 100 100 100 100 100 100 100 100 100 100 100 100 100 100 100
100 77 27 57 64 10 52 80 83 19 5 44 100 100 100 100 100 100 80 56 78 100 100 100 100 62 5 11 73 95 100 100 100 100 100 100 100 100 100 100 100 100 100
100 21 5 5 8 58 100 100 97 100 98 100 100 100 100 100 100 100 90 49 100 100 100 100 100 29 5 5 5 5 5 64 100 100 100 100 100 100 100 100 100 100 100
63 67 71 87 99 100 100 100 100 100 100 100 100 100 100 100 100 100 92 100 100 100 100 100 97 16 5 5 5 5 6 100 100 100 100 84 99 96 97 99 81 100 99

GFSGL_prec_cloud_033.txt.gz
Cloud_Cover
100 100 99 100 100 52 97 86 5 3 14 5 1 3 0 0 0 0 0 0 0 0 0 0 0 0 0 0 0 0 0 0 0 0 0 0 0 1 5 18 48 57 30
100 100 21 5 5 81 73 3 5 9 5 5 1 5 0 1 0 0 0 0 0 0 0 0 0 0 0 0 0 0 0 0 0 0 0 0 3 0 2 0 1 1 5
100 77 6 6 4 4 2 2 5 9 5 5 5 5 1 2 0 0 0 0 0 0 0 0 0 0 0 0 0 0 0 0 3 5 5 5 5 5 4 2 4 1 4
35 9 13 5 5 1 0 3 95 100 8 5 5 0 0 0 0 0 0 0 0 0 0 0 0 0 0 0 0 2 5 5 5 13 12 18 20 21 47 24 5 5 4
14 11 6 5 6 5 2 5 82 51 16 4 3 0 0 0 0 0 0 0 0 0 0 0 0 0 0 4 5 5 5 43 83 91 90 96 98 28 100 62 84 5 5
98 91 53 12 5 4 5 88 67 73 1 0 0 0 0 0 0 0 5 5 4 0 0 0 0 0 0 1 5 40 95 100 100 100 80 96 86 6 5 8 100 68 24
5 5 5 5 0 2 94 28 99 5 4 3 0 0 0 0 0 4 5 5 5 3 0 0 0 0 0 0 5 42 61 70 100 100 86 48 5 5 11 65 37 85 84
5 5 4 3 4 85 100 55 36 5 5 2 0 0 0 0 1 5 5 5 5 5 1 0 3 4 5 9 34 65 100 97 73 78 95 96 99 72 96 84 100 96 78
5 3 5 5 100 83 13 21 5 5 5 5 0 0 1 0 5 5 5 5 5 5 5 5 5 5 82 100 100 89 69 60 94 100 100 100 100 100 100 100 98 100 97
11 5 38 100 100 90 58 5 22 5 1 0 0 0 2 5 5 5 5 6 5 5 5 6 75 100 100 100 100 100 100 84 26 79 82 14 5 40 100 100 100 100 100
60 100 100 100 100 70 5 5 5 5 1 3 1 3 2 5 5 5 6 87 40 13 19 48 7 99 100 100 100 88 60 100 94 89 43 60 69 82 100 100 100 100 100
100 100 100 99 19 16 56 67 5 5 5 5 5 5 0 3 5 5 18 80 88 97 64 62 64 100 100 100 62 74 100 97 8 87 100 100 100 100 100 98 89 53 46
100 100 100 99 90 12 5 5 5 5 5 4 2 4 0 5 5 5 78 86 98 100 99 100 100 69 90 8 5 85 90 40 96 100 100 100 100 100 72 54 63 71 87
100 100 92 100 65 10 5 5 5 5 5 5 0 1 5 5 5 5 5 5 36 86 92 100 95 81 5 5 5 14 26 90 99 100 99 73 65 94 100 100 100 98 100
100 100 85 6 5 5 5 3 0 0 2 5 5 5 5 5 7 58 60 84 98 85 100 97 42 5 5 5 5 82 100 73 88 96 100 100 99 100 100 100 100 100 100
100 94 7 26 5 5 5 5 5 5 5 5 6 29 52 78 98 100 100 100 100 100 82 17 5 5 5 16 69 100 100 83 95 93 100 100 100 100 100 100 100 100 100
21 85 10 5 5 5 5 5 10 26 44 98 100 100 100 100 100 100 100 100 100 66 23 19 5 5 14 74 100 100 100 100 86 100 100 100 100 100 100 100 100 100 100
26 81 97 28 64 87 99 100 100 100 89 35 88 100 100 100 100 100 100 100 100 94 18 5 11 33 64 92 100 100 100 100 100 100 100 100 100 100 100 100 100 100 100
5 91 100 80 50 97 100 100 100 100 100 100 100 100 100 100 100 100 100 100 99 100 99 13 5 60 64 100 100 100 100 100 100 100 100 100 100 100 100 100 100 100 100
94 100 100 100 100 100 100 100 100 100 100 100 100 100 98 92 100 100 100 100 100 100 100 92 5 5 63 100 100 100 100 100 100 100 100 100 100 100 100 100 100 100 100
100 100 100 100 100 100 100 100 100 100 100 100 81 11 75 66 75 93 100 100 100 100 100 100 5 5 98 100 100 97 100 100 98 100 100 100 100 100 100 100 100 100 100
97 86 98 100 99 100 100 100 100 100 100 54 5 5 93 97 100 100 100 100 100 100 100 100 10 83 100 100 100 100 100 100 98 100 100 100 100 100 100 100 100 100 100
85 100 100 100 100 100 100 100 100 96 42 59 52 33 5 5 10 85 100 100 100 100 100 99 9 100 100 100 100 95 100 99 76 99 100 100 100 100 100 100 100 100 100
100 100 100 100 100 100 59 16 20 25 36 14 7 14 42 88 100 100 100 100 100 100 100 97 52 100 100 100 82 66 29 73 92 100 100 100 100 100 100 100 100 100 100
100 100 100 65 12 64 76 72 82 90 100 100 100 100 100 100 100 100 100 100 100 100 100 91 94 100 100 96 86 9 5 5 5 59 100 100 100 100 100 100 97 100 97
100 100 85 79 84 76 83 94 100 100 100 100 100 100 100 100 100 100 100 100 100 100 100 85 100 100 100 99 82 6 5 5 32 99 100 100 100 100 98 66 39 51 36

GFSGL_prec_cloud_036.txt.gz
Cloud_Cover
100 100 100 100 100 97 28 37 16 5 30 5 5 10 4 7 3 0 0 0 0 0 0 0 0 0 0 0 0 0 0 0 0 0 0 0 0 0 0 0 0 0 0
100 100 100 100 90 34 44 7 6 9 5 5 5 6 31 6 4 5 0 0 0 0 0 0 0 0 0 0 0 0 0 0 0 0 0 0 2 4 2 0 0 0 0
100 90 63 66 5 10 13 8 6 5 5 5 3 5 0 0 5 0 5 0 0 0 0 0 0 0 0 0 0 0 0 0 0 5 5 5 5 5 3 5 0 0 0
78 71 29 57 79 69 7 5 5 5 3 0 5 5 1 5 5 5 2 0 0 0 0 0 0 0 0 0 0 0 4 4 5 5 6 5 5 5 5 4 4 5 4
58 48 14 20 39 91 22 5 5 0 0 5 5 5 5 4 5 5 0 0 0 0 0 0 0 0 0 0 4 5 5 5 5 15 100 99 71 10 5 5 15 5 5
63 8 71 100 99 8 5 3 0 0 1 5 5 5 29 5 5 5 0 0 0 0 0 0 0 0 0 0 2 5 35 42 94 100 96 100 98 69 8 27 5 5 57
27 95 96 98 13 5 5 2 5 0 5 7 59 100 6 5 5 0 0 0 1 0 0 0 0 0 0 0 0 5 4 20 99 100 100 85 92 63 81 72 92 96 100
98 100 77 5 5 5 6 11 5 5 9 89 53 36 5 5 3 0 0 0 1 2 0 0 0 0 0 5 8 5 76 90 35 95 100 100 100 100 100 100 100 100 100
66 82 41 5 6 35 14 5 5 45 100 71 90 8 5 5 0 0 0 4 5 5 4 4 1 4 5 97 91 100 29 85 55 38 79 100 100 89 100 100 100 100 100
72 17 61 54 87 5 5 7 100 100 95 33 17 10 5 5 0 5 5 5 5 5 5 5 5 43 100 100 100 100 98 21 6 58 64 5 5 5 71 97 100 100 100
57 34 95 84 19 5 5 22 100 100 70 100 96 7 5 5 4 4 5 5 5 5 5 18 12 76 100 100 100 98 17 93 82 6 5 5 5 5 5 13 73 100 100
29 98 83 26 50 63 89 100 95 99 100 100 71 16 5 5 4 1 5 5 28 71 61 65 6 80 100 100 100 66 95 100 31 5 5 5 12 74 37 5 6 71 100
14 40 12 91 79 99 100 100 100 100 100 81 43 5 5 5 5 2 5 21 69 95 74 27 98 100 100 76 6 5 68 6 5 31 20 78 61 16 5 48 73 100 100
24 52 95 100 100 100 100 100 100 100 100 83 5 5 5 5 5 5 5 5 10 40 48 13 33 51 90 91 10 1 3 5 8 53 75 98 45 9 89 96 100 100 100
58 100 100 100 100 100 100 100 100 100 38 12 5 5 5 5 5 5 56 73 5 5 26 87 100 93 15 5 5 16 5 5 5 6 79 48 89 100 98 85 100 100 100
99 98 100 100 100 100 52 72 97 50 35 63 73 85 84 79 90 100 100 100 100 100 100 100 80 12 42 5 9 17 5 5 6 53 63 100 100 100 100 100 100 100 100
100 100 99 100 100 100 100 80 98 100 100 100 100 100 100 100 100 100 100 100 100 100 100 100 62 65 100 89 82 5 5 5 35 100 100 100 100 100 100 100 100 100 100
92 94 100 100 100 95 80 98 100 100 100 100 100 100 100 100 100 100 100 100 100 100 100 100 100 100 100 31 92 68 5 71 70 100 97 94 100 100 100 100 100 100 100
100 100 100 97 100 100 98 100 100 100 100 100 100 100 100 100 100 100 100 100 100 100 100 98 100 100 100 100 69 89 5 100 92 100 96 100 100 100 100 100 100 100 100
100 100 88 100 100 100 94 100 100 100 100 100 100 100 100 100 98 100 100 85 73 73 99 100 100 100 100 94 99 55 12 98 84 71 77 71 100 100 100 100 100 100 100
96 68 100 85 97 100 100 100 100 100 100 100 100 100 100 100 100 100 29 18 61 10 59 100 100 100 100 100 100 39 66 100 75 81 51 62 100 100 100 100 100 100 100
98 100 100 100 100 100 95 97 100 84 93 100 100 93 63 45 24 68 93 100 100 100 100 100 100 100 100 100 100 65 100 100 86 83 65 93 100 100 100 100 100 100 100
100 100 100 100 97 99 100 100 78 56 70 89 35 5 5 5 5 5 5 7 94 100 100 100 100 100 100 100 100 82 100 92 79 100 97 100 100 100 100 100 100 100 100
20 27 83 97 93 68 50 23 77 100 100 61 5 5 5 5 5 5 40 78 82 100 100 100 100 100 100 100 100 100 100 94 96 99 82 100 100 100 100 100 100 100 100
88 82 40 22 16 11 5 5 5 8 5 5 5 40 14 46 74 80 85 68 67 97 100 100 100 100 100 100 100 100 100 100 98 81 18 14 100 96 100 100 100 96 87
8 8 19 7 5 24 48 48 21 21 28 5 5 22 90 99 71 85 67 62 71 98 100 100 100 100 100 100 100 100 100 99 90 65 78 100 100 100 100 99 85 99 74

GFSGL_prec_cloud_042.txt.gz
Cloud_Cover
95 100 97 24 5 61 100 99 100 100 100 92 62 50 75 86 51 87 14 6 5 5 5 5 18 0 0 0 0 0 0 5 5 5 0 0 0 0 0 0 0 0 0
31 92 100 85 30 100 100 100 100 47 10 33 45 43 39 56 81 80 24 5 5 5 5 5 5 0 0 0 0 2 5 5 5 0 0 0 0 0 0 0 0 0 0
96 62 34 6 12 40 7 5 22 48 26 96 94 77 78 65 84 98 31 5 54 5 4 5 0 0 0 0 0 1 5 33 0 3 5 2 5 2 1 5 5 5 5
5 5 5 5 68 79 76 48 54 83 85 99 79 80 66 69 86 100 5 13 5 4 5 5 0 0 0 0 5 61 100 5 5 5 5 5 5 5 5 15 9 5 5
60 78 70 5 8 89 79 83 90 99 100 96 100 96 95 100 100 22 5 5 5 5 5 0 0 0 1 5 35 63 5 8 5 5 5 5 12 33 47 77 100 86 40
40 100 77 88 78 96 100 100 100 100 100 100 100 100 100 100 61 11 5 5 5 0 2 5 4 5 0 81 28 5 5 30 62 73 6 99 82 68 100 96 100 100 84
70 90 100 96 98 96 100 100 100 100 100 100 100 100 100 83 52 6 5 5 5 5 5 5 5 5 13 57 5 5 2 2 6 77 91 60 72 99 94 100 100 100 100
95 100 100 100 100 100 100 100 100 100 100 100 100 100 100 99 30 46 11 5 5 5 17 29 5 12 64 9 18 0 2 2 5 5 22 79 100 100 100 92 88 67 17
100 100 100 100 100 100 100 100 100 100 100 100 100 100 100 100 89 58 24 5 5 26 97 6 47 100 5 22 5 5 5 5 8 77 100 96 74 100 53 5 5 90 94
100 100 100 100 100 100 100 100 100 100 100 100 100 100 100 100 94 90 56 70 79 100 79 96 100 42 26 6 5 5 32 85 16 100 86 30 5 4 0 5 5 100 100
100 100 100 100 100 100 100 100 100 100 100 100 100 100 100 100 100 91 100 98 100 90 100 97 48 5 5 6 89 99 91 86 86 100 55 5 5 2 5 5 16 51 100
100 100 100 100 100 100 100 100 100 100 100 100 100 100 100 100 99 97 100 100 98 100 100 96 23 10 54 99 100 100 100 100 75 13 5 5 5 5 5 5 5 5 28
100 100 100 100 100 100 100 100 100 100 100 100 100 100 100 94 78 100 100 100 100 54 100 66 75 83 96 100 100 100 100 78 91 17 5 5 5 58 38 8 5 5 98
100 100 100 100 100 100 100 100 100 100 100 100 100 97 67 94 100 100 100 100 100 93 100 96 96 99 100 100 100 100 98 97 92 84 25 28 5 72 87 7 100 67 100
100 100 100 100 100 100 100 100 100 100 100 99 96 100 100 97 100 100 100 100 100 99 99 71 89 100 100 99 94 61 100 100 100 100 71 20 56 58 74 57 83 91 100
100 100 100 100 100 100 100 100 100 96 96 98 100 100 100 85 78 100 92 95 100 100 100 98 100 97 94 91 100 100 100 100 100 99 91 84 82 67 91 80 60 100 100
100 100 100 100 100 100 100 94 100 100 98 100 89 100 100 100 100 100 100 100 100 100 100 100 100 100 100 100 100 100 100 100 100 100 100 100 100 91 91 97 100 100 100
100 100 88 93 100 94 92 100 86 99 100 100 100 100 100 100 100 100 98 99 76 90 93 98 100 100 100 100 100 100 100 100 100 100 100 100 100 100 100 100 98 100 100
100 100 100 100 100 99 99 86 86 96 100 100 98 82 100 98 83 86 92 37 31 5 17 48 59 75 90 100 100 100 100 100 100 100 100 100 100 100 100 100 100 99 100
100 100 100 99 59 93 100 86 99 100 98 70 100 100 92 81 66 43 51 55 74 54 42 68 8 28 81 98 100 86 99 100 100 100 100 100 100 100 100 100 100 100 100
73 100 97 38 63 59 88 88 45 97 100 100 97 92 71 100 92 95 62 58 78 58 35 61 53 30 74 100 100 100 100 100 100 100 100 100 100 100 100 99 100 100 100
28 22 5 5 9 5 25 65 77 91 91 82 100 100 89 61 17 5 5 11 5 5 5 12 99 85 71 86 70 100 100 100 100 100 100 100 100 100 100 100 100 100 100
5 5 5 12 54 85 91 79 76 88 100 100 100 100 42 9 5 5 5 5 5 5 5 31 68 79 65 67 64 88 94 100 100 100 100 100 100 100 97 100 99 98 100
66 70 78 81 88 97 100 100 100 100 100 87 91 100 97 36 33 9 12 5 5 5 5 54 81 95 76 47 70 69 72 98 100 100 100 100 100 97 99 100 77 79 100
98 100 100 100 100 100 100 74 63 93 100 100 100 99 72 11 8 5 5 5 6 36 5 11 35 16 7 5 16 54 56 100 100 100 100 100 100 100 99 83 38 93 97
76 96 100 100 100 100 97 100 100 100 100 100 98 61 28 14 5 5 5 10 5 5 5 19 6 7 18 8 6 18 59 99 100 100 100 76 99 80 62 67 88 100 100

GFSGL_prec_cloud_045.txt.gz
Cloud_Cover
5 29 54 74 100 100 94 54 85 38 46 47 55 52 32 56 98 53 37 60 7 14 6 23 40 15 5 5 5 1 0 0 5 0 0 5 0 0 3 0 0 0 0
5 5 31 35 68 96 20 5 5 5 5 13 6 5 70 92 98 84 63 31 74 92 87 69 8 5 5 5 0 1 2 0 1 0 0 2 0 1 1 0 0 0 0
63 54 59 62 99 73 10 6 10 17 72 73 92 99 77 35 70 93 61 93 100 80 41 29 30 5 5 3 2 0 2 0 0 4 5 0 3 3 0 1 4 0 0
13 29 45 36 80 86 95 82 57 67 98 100 99 100 100 100 100 98 96 85 72 54 79 93 12 5 5 5 5 0 0 5 5 5 5 5 5 5 5 5 5 5 2
43 68 92 100 100 100 99 88 100 98 100 100 100 100 100 100 100 100 90 90 79 99 100 100 13 5 5 5 5 5 4 5 5 5 13 5 5 9 87 83 76 46 5
95 95 100 100 100 100 100 100 100 100 100 100 100 100 100 100 100 100 88 98 100 100 100 95 57 5 5 8 5 5 12 5 14 70 6 44 7 89 31 100 100 92 52
45 93 100 100 100 100 100 100 100 100 100 100 100 100 100 100 100 100 100 100 100 100 100 69 16 70 89 24 5 5 5 5 31 50 5 88 89 10 32 99 100 99 34
78 98 100 100 100 100 100 100 100 100 100 100 100 100 100 100 100 100 100 95 100 100 100 69 95 100 99 56 7 27 5 70 100 5 3 5 5 45 100 100 89 12 5
100 100 100 100 100 100 100 100 100 100 100 100 100 100 100 100 100 100 100 100 100 100 100 100 100 100 86 57 89 26 85 100 6 5 100 100 100 100 100 43 6 81 15
100 100 100 100 100 100 100 100 100 100 100 100 100 100 100 100 100 100 100 100 100 100 100 100 100 100 100 100 81 100 100 100 7 16 21 73 100 100 85 52 52 98 100
100 100 100 100 100 100 100 100 100 100 100 100 100 100 100 100 100 100 100 100 100 100 100 100 100 100 100 100 100 100 93 75 80 99 92 100 100 100 65 89 55 32 100
100 100 100 100 100 100 100 100 100 100 100 100 100 100 100 100 100 100 100 100 100 100 100 100 100 100 100 100 100 90 100 100 99 96 98 43 71 62 94 89 100 55 70
100 100 100 100 100 100 100 100 100 100 100 100 100 100 100 100 100 100 100 100 100 100 100 100 100 100 100 100 100 100 100 100 100 83 52 90 99 52 56 98 80 29 5
100 100 100 100 100 100 100 100 100 100 100 100 100 100 100 100 100 100 100 100 100 100 100 100 100 100 100 99 97 100 100 100 100 82 80 88 63 5 12 40 31 62 82
100 100 100 100 100 100 100 100 100 100 100 100 100 100 100 100 100 100 100 100 100 100 98 88 66 30 95 100 100 100 100 100 100 100 92 82 61 8 28 72 80 58 84
100 100 100 100 100 100 100 100 100 100 100 100 100 100 100 100 100 100 100 100 98 93 90 91 72 98 94 100 100 100 72 91 100 100 100 100 89 86 54 33 86 80 96
100 100 100 100 100 100 100 100 99 99 100 100 100 100 100 100 100 100 100 100 100 100 100 100 89 91 82 95 99 100 100 100 100 100 100 100 100 99 91 82 99 78 79
100 100 100 100 100 100 100 100 100 100 100 100 100 100 100 100 100 100 100 100 100 98 100 100 98 76 92 97 99 99 100 100 100 100 100 100 100 100 100 100 100 100 92
100 100 100 100 100 100 100 100 98 100 66 50 100 92 98 100 100 96 61 97 95 99 95 61 54 51 37 63 71 97 100 100 99 100 100 100 100 100 100 100 100 100 100
100 100 97 93 100 100 100 100 91 32 7 38 88 99 95 94 78 94 93 94 97 99 67 100 62 75 72 69 95 97 94 86 67 72 82 100 100 100 100 100 100 100 100
73 81 80 32 5 5 10 6 5 22 70 58 78 94 66 100 100 100 100 100 100 74 43 74 53 77 100 100 97 98 98 68 59 71 100 100 100 100 100 100 100 100 100
5 5 5 5 20 20 29 14 7 36 82 100 100 98 100 100 100 100 96 76 58 12 5 35 54 88 91 100 100 100 100 90 56 81 82 100 100 100 100 100 100 100 91
5 5 5 24 13 25 40 75 90 86 88 98 100 100 100 71 46 57 18 13 8 5 5 64 96 73 27 70 75 93 100 90 15 90 83 81 97 100 100 100 100 99 63
6 53 69 74 79 85 94 98 99 94 98 93 100 99 82 18 31 29 13 12 40 18 36 57 53 62 59 70 46 34 80 71 89 92 91 98 99 100 98 100 93 67 20
5 5 5 62 84 94 87 76 76 88 94 82 75 68 52 32 23 42 37 12 41 54 5 5 10 22 36 17 13 31 73 90 24 69 93 76 95 85 100 100 66 57 36
8 73 77 98 100 100 100 100 100 100 100 100 97 76 70 86 89 65 36 32 12 5 5 7 20 8 5 5 5 51 61 52 59 83 67 70 70 99 98 87 74 76 86

GFSGL_prec_cloud_048.txt.gz
Cloud_Cover
14 37 52 37 76 100 100 100 100 100 100 98 86 96 100 100 100 83 75 78 89 96 60 71 82 66 49 48 42 8 5 5 5 33 5 3 0 5 0 0 0 0 0
3 10 41 55 96 100 100 100 100 100 100 100 100 100 100 88 93 77 100 100 100 98 89 98 83 72 52 68 15 5 5 5 5 0 1 0 51 1 0 0 0 0 0
0 8 39 46 95 100 100 100 100 100 100 100 100 100 100 100 98 100 100 100 94 93 100 100 100 100 94 58 5 5 5 5 5 2 0 60 8 0 0 0 0 0 0
0 2 25 34 84 100 100 100 100 100 100 100 100 100 100 100 100 100 100 100 100 100 100 100 95 79 22 43 22 5 5 5 5 5 37 8 5 1 3 5 5 5 2
22 57 69 77 97 99 100 100 100 100 100 100 100 100 100 100 100 100 100 100 100 100 100 100 87 88 64 71 29 5 5 42 5 8 8 9 5 5 5 5 5 5 5
66 94 70 34 42 97 100 100 100 100 100 100 100 100 100 100 100 100 100 100 100 100 100 100 100 97 97 52 22 27 82 54 19 100 17 72 11 5 5 5 50 100 46
99 100 86 82 97 94 100 100 100 100 100 100 100 100 100 100 100 100 100 100 100 100 100 100 90 100 100 53 54 65 100 74 98 45 100 85 24 5 5 27 100 94 79
100 93 100 96 100 100 100 100 100 100 100 100 100 100 100 100 100 100 100 100 100 100 100 100 100 100 100 87 63 100 100 100 100 100 93 97 66 5 7 99 89 12 3
100 68 100 100 100 100 100 100 100 100 100 100 100 100 100 100 100 100 100 100 100 100 100 100 100 100 100 100 100 100 100 100 100 100 100 99 100 100 100 91 72 41 5
100 100 100 100 100 100 100 100 100 100 100 100 100 100 100 100 100 100 100 100 100 100 100 100 100 100 100 100 100 100 100 100 100 100 100 6 57 100 100 100 100 84 67
100 100 100 100 100 100 100 100 100 100 100 100 100 100 100 100 100 100 100 100 100 100 100 100 100 100 100 100 100 100 100 100 100 95 75 99 100 100 100 100 100 100 100
100 100 100 100 100 100 100 100 100 100 100 100 100 100 100 100 100 100 100 100 100 100 100 100 100 100 100 100 100 100 100 100 99 94 100 100 100 100 100 100 100 100 100
100 100 100 100 100 100 100 100 100 100 100 100 100 100 100 100 100 100 100 100 100 100 100 100 100 100 100 100 100 100 100 100 100 100 94 61 88 100 100 100 82 96 24
100 100 100 100 100 100 100 100 100 100 100 100 100 100 100 100 100 100 100 100 100 100 100 100 100 100 100 100 100 97 84 100 100 100 95 66 100 100 100 100 89 70 69
100 100 100 100 100 100 100 100 100 100 100 100 100 100 100 100 100 100 100 100 100 100 100 100 100 100 100 99 91 92 100 100 100 100 100 90 98 100 100 100 100 87 85
100 100 100 100 100 100 100 100 100 100 100 100 100 100 100 100 100 100 100 100 100 100 100 100 100 100 100 100 85 86 96 99 79 89 100 98 98 100 100 100 100 100 71
100 97 95 100 100 100 100 100 100 100 100 100 100 100 100 100 100 100 100 100 100 100 100 100 100 100 98 99 93 100 100 100 81 86 79 89 96 100 100 100 100 100 83
78 90 94 100 100 100 100 100 100 100 100 100 100 100 100 100 100 100 100 100 98 100 100 100 100 100 89 74 45 51 55 72 90 86 95 92 100 100 100 96 100 100 100
100 100 100 100 100 100 100 100 100 98 100 100 100 95 100 100 100 100 100 100 100 100 100 100 100 100 54 30 44 79 100 100 91 92 89 83 92 100 100 100 100 100 100
100 100 100 100 96 100 87 93 100 100 98 100 88 82 91 100 94 100 99 98 85 88 86 87 86 96 98 98 100 100 100 100 100 95 100 80 76 90 96 100 100 100 100
55 84 100 100 100 100 100 92 53 53 27 56 37 84 100 100 100 100 92 74 69 65 87 45 62 74 97 100 100 100 100 100 100 100 99 90 64 99 99 100 100 100 100
78 12 49 51 28 26 26 5 5 5 35 87 99 89 97 99 100 100 89 77 98 51 18 46 67 77 84 100 100 100 100 100 100 73 89 87 99 97 86 84 100 100 100
10 5 5 29 6 7 5 14 23 56 72 94 100 98 86 93 98 100 100 100 100 89 75 91 82 74 5 73 85 100 100 98 45 85 100 100 100 94 83 89 100 100 100
5 5 5 5 5 5 10 50 78 91 99 90 85 95 90 96 98 99 100 95 100 100 100 90 78 84 42 9 59 69 91 69 97 98 100 100 100 88 79 71 91 100 68
5 5 5 5 5 5 5 5 5 7 12 21 90 100 100 100 99 78 96 100 100 100 89 41 5 9 38 8 18 42 35 94 89 93 99 100 100 77 47 37 77 64 58
5 5 11 5 5 5 5 5 5 5 20 77 97 100 100 100 99 100 100 100 100 100 96 7 13 5 5 6 5 43 69 100 82 20 6 67 82 62 79 93 77 94 83